Regional Weather Roundup
Issued by NWS Green Bay, WI

Home | Current Version | Previous Version | Graphics & Text | Print | Product List | Glossary Off
Versions: 1 2 3 4 5 6 7 8 9 10 11 12 13 14 15 16 17 18 19 20 21 22 23 24 25 26 27 28 29 30 31 32 33 34 35 36 37 38 39 40 41 42 43 44 45 46 47 48 49 50

245
ASUS43 KGRB 222100
RWRGRB

NORTH-CENTRAL AND NORTHEAST WISCONSIN REGIONAL WEATHER ROUNDUP
NATIONAL WEATHER SERVICE GREEN BAY WI
300 PM CST WED FEB 22 2017

WIZ005-009-010>012-018-019-222200-
NORTH CENTRAL WISCONSIN

CITY           SKY/WX    TMP DP  RH WIND       PRES   REMARKS
IRONWOOD       CLOUDY    44  36  73 E7        29.59F
MANITOWISH WTR NOT AVBL
ARBOR VITAE    NOT AVBL
EAGLE RIVER    NOT AVBL
LAND O LAKES   RAIN      43  42  95 CALM      29.60R
RHINELANDER    CLOUDY    51  41  68 NW7       29.60R
PHILLIPS       CLOUDY    46  45  96 E5        29.53F
ANTIGO         NOT AVBL
TOMAHAWK       NOT AVBL
MERRILL        NOT AVBL
$$

WIZ013-073-222200-
NORTHEAST WISCONSIN

CITY           SKY/WX    TMP DP  RH WIND       PRES   REMARKS
IRON MOUNTAIN  CLOUDY    52  39  61 NW7       29.56R
MARINETTE      CLOUDY    55  44  66 SE5       29.54F
OCONTO         PTSUNNY   60  45  57 W6        29.54R
$$

WIZ017-030-035>037-045-222200-
CENTRAL WISCONSIN

CITY           SKY/WX    TMP DP  RH WIND       PRES   REMARKS
MEDFORD        NOT AVBL
WAUSAU         CLOUDY    54  38  54 NW5       29.54S
MOSINEE        PTSUNNY   55  37  50 VRB5      29.56S
MARSHFIELD     CLOUDY    55  41  59 NW7       29.54F
WISC RAPIDS    CLOUDY    59  37  44 NW3       29.54F
STEVENS POINT  NOT AVBL
WAUPACA        CLOUDY    65  39  38 NW7       29.53S
SHAWANO        MOSUNNY   61  44  52 NW5       29.55R
CLINTONVILLE   CLOUDY    61  37  41 W8        29.54S
WAUTOMA        CLOUDY    67  43  41 SW12      29.52F
$$

WIZ038-039-048-051-222200-
FOX VALLEY

CITY           SKY/WX    TMP DP  RH WIND       PRES   REMARKS
NWS GREEN BAY  SUNNY     65  52  62 SW10      29.53S
APPLETON       PTSUNNY   64  45  48 SW12      29.52S
OSHKOSH        MOSUNNY   64  50  60 S15       29.53S
FOND DU LAC    SUNNY     66  47  50 SW16G22   29.53F
$$

WIZ022-050-052-222200-
EAST CENTRAL WISCONSIN

CITY           SKY/WX    TMP DP  RH WIND       PRES   REMARKS
EPHRAIM        NOT AVBL
WASHINGTON ISL FOG       41  41  99 S8        29.55F VSB 1/4
STURGEON BAY   MOSUNNY   51  44  77 E6        29.55S
MANITOWOC      NOT AVBL
SHEBOYGAN      SUNNY     69  47  45 SW16      29.53F
$$

LMZ563-521-522-541>543-222200-
LAKESHORE

STATION/POSITION TIME  TEMP    WIND        PRES    VSBY  WAVE
                       AIR SEA DIR/SP/G                  HT/PER
                 (UTC) (F)     (DEG/KT/KT) (MB)    (MI)  (FT/S)
SHEBOYGAN LKSHOR 2000   47     180/ 25/ 26 1000.7F
KEWAUNEE LKSHORE 2006   39     170/  9/ 10 1000.4
NORTHPORT PIER   2040   44     160/  6/ 10 1001.4R
SISTER BAY LKSHO 2005   48     190/ 15/ 17   N/A
CHAMBERS ISLAND  2040   48     300/  3/  6 1000.3S
MENOMINEE LKSHOR 2030   45     130/  3/  4  999.8R
$$




USA.gov is the U.S. government's official web portal to all federal, state and local government web resources and services.